DELTA 1 DEB, 10715

Orbit data source: Space-Track

DELTA 1 DEB, 10715 is space debris in LEO originally from a launch on Thu, 29 Jul 1976 UTC launched from the Air Force Western Test Range (AFWTR). Debris objects in space refer to the collection of defunct objects orbiting the Earth. Examples of debris include non-operational satellites, rocket bodies, and fragments generated from explosions, collisions, or faulty payload assembly.

Loading next visibility...
Identifier
10715, 1976-077AL
Orbit
LEO
Last TLE update
1 day ago
Origin
Manufacturer
Unknown
Mission
Spacecraft
Bus & Motor
Unknown
Mass
Unknown
Launch date (UTC)
1976-07-29 (49 years ago)
Launch vehicle
Unknown
Launch site
Air Force Western Test Range (AFWTR)
Object type
Payload
Rocket body
Debris
Shape & HBR
Unknown
Radar Cross Section
Medium (>0.1 m² and <1 m²)

Expand to show TLE details & history

TLE from 1 day ago
0 DELTA 1 DEB
1 10715U 76077AL  25181.43216417 -.00000009  00000-0  41351-3 0  9993
2 10715 102.4989 336.1814 0434277  63.8002 358.7548 11.63930789 81265
Epoch: 2025-06-30T10:22Z
TLE epoch observation values (Epoch: 2025-06-30T10:22:18.984Z)
Latitude
60.03455°
Longitude
-120.63392°
Altitude
1,499.334 km
Speed
7.273 km/s
True Right ascension
20h 54m 44s
True Declination
59° 53' 58"
Sunlit
Object was in daylight at epoch
Visualization orbit readout
Latitude
-61.18834°
Longitude
-73.59728°
Altitude
2,068.696 km
Speed
6.787 km/s
Apparent Right ascension
06h 19m 23s
Apparent Declination
-77° 59' 23"
Sunlit
Object is in daylight
Visualization observer readout
Local Sidereal Time
22:03:58
Azimuth
165.657° S
Elevation
-45.769°
Doppler factor
1
Orbital elements
Apogee altitude
2,201.281 km
Perigee altitude
1,487.127 km
Semi-major axis
8,222.341 km
Eccentricity
0.04343
Inclination
102.4989°
RAAN
336.1814°
Arg. of periapsis
63.8002°
True anomaly
Unknown
Mean anomaly
358.7548°
Eccentric anomaly
Unknown
Mean motion
2.91105 °/min
Orbital period
123.67 mins
BSTAR
0.00041351
Loading maneuver chart data...
Loading SW <> Apogee altitude chart data...
Loading historical data...
Loading historical data...
Loading historical data...
Loading historical data...
Loading historical data...
Loading historical data...
Loading historical data...

DELTA 1 DEB Visibility forecast

Observer location: undefined°, undefined°

Span
Click to sort rows by Start time (UTC) header in descending order
Start Az.
Max El. time (UTC)
Max El. Az.
Max El.
End time (UTC)
End Az.
16 mins2025-07-01 10:51:31.482Z186.512° SSW2025-07-01 10:59:31.482Z252.42° W35.639°2025-07-01 11:07:31.482Z329.24° NNW
14 mins2025-07-01 21:46:31.482Z49.694° ENE2025-07-01 21:52:31.482Z96.563° ESE24.28°2025-07-01 22:00:31.482Z149.575° SSE
17 mins2025-07-01 23:46:31.482Z12.807° NNE2025-07-01 23:54:31.482Z277.952° WNW43.439°2025-07-02 00:03:31.482Z212.138° SW
8 mins2025-07-02 01:50:31.482Z337.902° N2025-07-02 01:53:31.482Z315.792° NNW16.473°2025-07-02 01:58:31.482Z281.534° WNW
6 mins2025-07-02 07:40:31.482Z63.571° ENE2025-07-02 07:42:31.482Z48.315° ENE13.796°2025-07-02 07:46:31.482Z18.279° NNE
15 mins2025-07-02 09:35:31.482Z145.12° SSE2025-07-02 09:42:31.482Z70.909° E42.778°2025-07-02 09:50:31.482Z347.114° N
|